Simultaneous Nadir Overpasses (SNOs) Predictions

Prediction of SNOs between GOES-17 and METOP-B Satellite Orbit:

Table of predicted SNOs for the next 14.0 days since TLE Epoch: 10/12/2024
Index Date Time (GOES-17) GOES-17 Lat,Lon METOP-B Lat,Lon Distance(km) Time Diff (sec)
1 10/12/2024 16:28:20 -0.00,-104.76 0.66,-107.86 352.75 80
2 10/13/2024 16:10:17 -0.00,-104.77 -0.45,-102.86 217.83 80
3 10/15/2024 04:29:13 0.00,-104.73 -0.59,-107.45 310.12 80
4 10/16/2024 04:05:50 0.01,-104.73 0.53,-102.45 260.40 80
5 10/17/2024 16:24:37 -0.01,-104.80 0.48,-107.01 251.39 80
6 10/18/2024 16:06:33 -0.01,-104.81 -0.61,-102.00 319.40 80
7 10/20/2024 04:25:28 0.01,-104.76 -0.39,-106.59 208.20 80
8 10/21/2024 04:02:05 0.00,-104.77 0.72,-101.59 362.35 80
9 10/22/2024 16:20:50 0.01,-104.83 0.31,-106.14 149.32 80
10 10/23/2024 16:02:47 0.01,-104.84 -0.81,-101.14 421.79 80
11 10/25/2024 04:21:40 -0.02,-104.80 -0.24,-105.71 104.73 80
